Year,Month,Day,Hour,Minute,Value (Times are PST for temperature in C)
2023,04,24,14,00,11.00
2023,04,24,14,01,10.90
2023,04,24,14,02,10.90
2023,04,24,14,03,10.90
2023,04,24,14,04,10.80
2023,04,24,14,05,10.80
2023,04,24,14,06,10.80
2023,04,24,14,07,10.80
2023,04,24,14,08,10.80
2023,04,24,14,09,10.90
2023,04,24,14,10,11.00
2023,04,24,14,11,11.10
2023,04,24,14,12,11.20
2023,04,24,14,13,11.20
2023,04,24,14,14,11.20
2023,04,24,14,15,11.20
2023,04,24,14,16,11.20
2023,04,24,14,17,11.20
2023,04,24,14,18,11.20
2023,04,24,14,19,11.20
2023,04,24,14,20,11.20
2023,04,24,14,21,11.20
2023,04,24,14,22,11.30
2023,04,24,14,23,11.40
2023,04,24,14,24,11.70
2023,04,24,14,25,11.80
2023,04,24,14,26,12.00
2023,04,24,14,27,12.20
2023,04,24,14,28,12.40
2023,04,24,14,29,12.50
2023,04,24,14,30,12.70
2023,04,24,14,31,12.90
2023,04,24,14,32,13.10
2023,04,24,14,33,13.20
2023,04,24,14,34,13.40
2023,04,24,14,35,13.40
2023,04,24,14,36,13.40
2023,04,24,14,37,13.40
2023,04,24,14,38,13.40
2023,04,24,14,39,13.50
2023,04,24,14,40,13.50
2023,04,24,14,41,13.50
2023,04,24,14,42,13.50
2023,04,24,14,43,13.60
2023,04,24,14,44,13.60
2023,04,24,14,45,13.70
2023,04,24,14,46,13.90
2023,04,24,14,47,13.90
2023,04,24,14,48,13.80
2023,04,24,14,49,13.70
2023,04,24,14,50,13.70
2023,04,24,14,51,13.60
2023,04,24,14,52,13.60
2023,04,24,14,53,13.60
2023,04,24,14,54,13.60
2023,04,24,14,55,13.70
2023,04,24,14,56,13.70
2023,04,24,14,57,13.70
2023,04,24,14,58,13.60
2023,04,24,14,59,13.40
2023,04,24,15,00,13.20
2023,04,24,15,01,13.10
2023,04,24,15,02,13.00
2023,04,24,15,03,12.80
2023,04,24,15,04,12.60
2023,04,24,15,05,12.50
2023,04,24,15,06,12.40
2023,04,24,15,07,12.30
2023,04,24,15,08,12.20
2023,04,24,15,09,12.10
2023,04,24,15,10,12.10
2023,04,24,15,11,12.10
2023,04,24,15,12,12.10
2023,04,24,15,13,12.10
2023,04,24,15,14,12.10
2023,04,24,15,15,12.10
2023,04,24,15,16,12.00
2023,04,24,15,17,12.00
2023,04,24,15,18,11.90
2023,04,24,15,19,11.90
2023,04,24,15,20,11.90
2023,04,24,15,21,11.90
2023,04,24,15,22,11.90
2023,04,24,15,23,11.90
2023,04,24,15,24,11.90
2023,04,24,15,25,11.90
2023,04,24,15,26,11.90
2023,04,24,15,27,11.90
2023,04,24,15,28,11.90
2023,04,24,15,29,11.90
2023,04,24,15,30,11.90
2023,04,24,15,31,11.90
2023,04,24,15,32,12.00
2023,04,24,15,33,12.10
2023,04,24,15,34,12.10
2023,04,24,15,35,12.20
2023,04,24,15,36,12.20
2023,04,24,15,37,12.20
2023,04,24,15,38,12.10
2023,04,24,15,39,12.10
2023,04,24,15,40,12.10
2023,04,24,15,41,12.10
2023,04,24,15,42,12.20
2023,04,24,15,43,12.20
2023,04,24,15,44,12.30
2023,04,24,15,45,12.30
2023,04,24,15,46,12.30
2023,04,24,15,47,12.20
2023,04,24,15,48,12.20
2023,04,24,15,49,12.10
2023,04,24,15,50,12.10
2023,04,24,15,51,12.10
2023,04,24,15,52,12.00
2023,04,24,15,53,12.00
2023,04,24,15,54,11.90
2023,04,24,15,55,11.90
2023,04,24,15,56,11.90
2023,04,24,15,57,11.90
2023,04,24,15,58,11.90
2023,04,24,15,59,11.90
2023,04,24,16,00,11.90
2023,04,24,16,01,11.90
2023,04,24,16,02,11.90
2023,04,24,16,03,11.90
2023,04,24,16,04,11.90
2023,04,24,16,05,11.90
2023,04,24,16,06,11.90
2023,04,24,16,07,11.90
2023,04,24,16,08,11.80
2023,04,24,16,09,11.80
2023,04,24,16,10,11.80
2023,04,24,16,11,11.80
2023,04,24,16,12,11.80
2023,04,24,16,13,11.80
2023,04,24,16,14,11.80
2023,04,24,16,15,11.80
2023,04,24,16,16,11.80
2023,04,24,16,17,11.80
2023,04,24,16,18,11.80
2023,04,24,16,19,11.80
2023,04,24,16,20,11.80
2023,04,24,16,21,11.90
2023,04,24,16,22,11.90
2023,04,24,16,23,11.90
2023,04,24,16,24,11.90
2023,04,24,16,25,11.80
2023,04,24,16,26,11.80
2023,04,24,16,27,11.80
2023,04,24,16,28,11.80
2023,04,24,16,29,11.80
2023,04,24,16,30,11.80
2023,04,24,16,31,11.80
2023,04,24,16,32,11.80
2023,04,24,16,33,11.80
2023,04,24,16,34,11.90
2023,04,24,16,35,11.90
2023,04,24,16,36,11.90
2023,04,24,16,37,11.90
2023,04,24,16,38,11.90
2023,04,24,16,39,11.90
2023,04,24,16,40,11.90
2023,04,24,16,41,11.90
2023,04,24,16,42,11.90
2023,04,24,16,43,11.90
2023,04,24,16,44,11.80
2023,04,24,16,45,11.80
2023,04,24,16,46,11.80
2023,04,24,16,47,11.80
2023,04,24,16,48,11.70
2023,04,24,16,49,11.70
2023,04,24,16,50,11.70
2023,04,24,16,51,11.70
2023,04,24,16,52,11.70
2023,04,24,16,53,11.70
2023,04,24,16,54,11.80
2023,04,24,16,55,11.80
2023,04,24,16,56,11.80
2023,04,24,16,57,11.80
2023,04,24,16,58,11.80
2023,04,24,16,59,11.80
2023,04,24,17,00,11.80
2023,04,24,17,01,11.80
2023,04,24,17,02,11.80
2023,04,24,17,03,11.80
2023,04,24,17,04,11.80
2023,04,24,17,05,11.80
2023,04,24,17,06,11.80
2023,04,24,17,07,11.80
2023,04,24,17,08,11.90
2023,04,24,17,09,11.90
2023,04,24,17,10,11.90
2023,04,24,17,11,12.00
2023,04,24,17,12,12.00
2023,04,24,17,13,12.00
2023,04,24,17,14,12.10
2023,04,24,17,15,12.10
2023,04,24,17,16,12.10
2023,04,24,17,17,12.10
2023,04,24,17,18,12.10
2023,04,24,17,19,12.10
2023,04,24,17,20,12.10
2023,04,24,17,21,12.10
2023,04,24,17,22,12.10
2023,04,24,17,23,12.10
2023,04,24,17,24,12.10
2023,04,24,17,25,12.10
2023,04,24,17,26,12.10
2023,04,24,17,27,12.10
2023,04,24,17,28,12.00
2023,04,24,17,29,12.00
2023,04,24,17,30,12.10
2023,04,24,17,31,12.10
2023,04,24,17,32,12.10
2023,04,24,17,33,12.10
2023,04,24,17,34,12.10
2023,04,24,17,35,12.10
2023,04,24,17,36,12.10
2023,04,24,17,37,12.20
2023,04,24,17,38,12.20
2023,04,24,17,39,12.20
2023,04,24,17,40,12.30
2023,04,24,17,41,12.20
2023,04,24,17,42,12.20
2023,04,24,17,43,12.10
2023,04,24,17,44,12.10
2023,04,24,17,45,12.10
2023,04,24,17,46,12.10
2023,04,24,17,47,12.10
2023,04,24,17,48,12.10
2023,04,24,17,49,12.00
2023,04,24,17,50,12.00
2023,04,24,17,51,12.00
2023,04,24,17,52,12.10
2023,04,24,17,53,12.10
2023,04,24,17,54,12.10
2023,04,24,17,55,12.10
2023,04,24,17,56,12.10
2023,04,24,17,57,12.20
2023,04,24,17,58,12.20
2023,04,24,17,59,12.20
2023,04,24,18,00,12.20
2023,04,24,18,01,12.20
2023,04,24,18,02,12.20
2023,04,24,18,03,12.20
2023,04,24,18,04,12.20
2023,04,24,18,05,12.20
2023,04,24,18,06,12.20
2023,04,24,18,07,12.20
2023,04,24,18,08,12.20
2023,04,24,18,09,12.10
2023,04,24,18,10,12.10
2023,04,24,18,11,12.10
2023,04,24,18,12,12.00
2023,04,24,18,13,12.00
2023,04,24,18,14,12.00
2023,04,24,18,15,12.00
2023,04,24,18,16,12.00
2023,04,24,18,17,12.00
2023,04,24,18,18,12.00
2023,04,24,18,19,12.00
2023,04,24,18,20,12.00
2023,04,24,18,21,12.00
2023,04,24,18,22,12.00
2023,04,24,18,23,12.00
2023,04,24,18,24,11.90
2023,04,24,18,25,11.90
2023,04,24,18,26,11.90
2023,04,24,18,27,11.90
2023,04,24,18,28,11.90
2023,04,24,18,29,11.90
2023,04,24,18,30,11.90
2023,04,24,18,31,11.90
2023,04,24,18,32,11.90
2023,04,24,18,33,11.90
2023,04,24,18,34,11.90
2023,04,24,18,35,11.80
2023,04,24,18,36,11.80
2023,04,24,18,37,11.80
2023,04,24,18,38,11.80
2023,04,24,18,39,11.80
2023,04,24,18,40,11.90
2023,04,24,18,41,11.90
2023,04,24,18,42,12.00
2023,04,24,18,43,12.00
2023,04,24,18,44,12.10
2023,04,24,18,45,12.10
2023,04,24,18,46,12.10
2023,04,24,18,47,12.10
2023,04,24,18,48,12.10
2023,04,24,18,49,12.10
2023,04,24,18,50,12.10
2023,04,24,18,51,12.10
2023,04,24,18,52,12.10
2023,04,24,18,53,12.10
2023,04,24,18,54,12.10
2023,04,24,18,55,12.10
2023,04,24,18,56,12.00
2023,04,24,18,57,12.00
2023,04,24,18,58,12.10
2023,04,24,18,59,12.00
2023,04,24,19,00,12.00
2023,04,24,19,01,12.10
2023,04,24,19,02,12.10
2023,04,24,19,03,12.10
2023,04,24,19,04,12.10
2023,04,24,19,05,12.10
2023,04,24,19,06,12.00
2023,04,24,19,07,12.00
2023,04,24,19,08,12.00
2023,04,24,19,09,12.00
2023,04,24,19,10,11.90
2023,04,24,19,11,11.90
2023,04,24,19,12,11.90
2023,04,24,19,13,11.90
2023,04,24,19,14,11.90
2023,04,24,19,15,11.80
2023,04,24,19,16,11.80
2023,04,24,19,17,11.80
2023,04,24,19,18,11.80
2023,04,24,19,19,11.80
2023,04,24,19,20,11.70
2023,04,24,19,21,11.70
2023,04,24,19,22,11.60
2023,04,24,19,23,11.60
2023,04,24,19,24,11.60
2023,04,24,19,25,11.50
2023,04,24,19,26,11.50
2023,04,24,19,27,11.40
2023,04,24,19,28,11.40
2023,04,24,19,29,11.40
2023,04,24,19,30,11.30
2023,04,24,19,31,11.30
2023,04,24,19,32,11.30
2023,04,24,19,33,11.30
2023,04,24,19,34,11.30
2023,04,24,19,35,11.20
2023,04,24,19,36,11.20
2023,04,24,19,37,11.20
2023,04,24,19,38,11.20
2023,04,24,19,39,11.20
2023,04,24,19,40,11.20
2023,04,24,19,41,11.10
2023,04,24,19,42,11.10
2023,04,24,19,43,11.10
2023,04,24,19,44,11.10
2023,04,24,19,45,11.10
2023,04,24,19,46,11.10
2023,04,24,19,47,11.00
2023,04,24,19,48,11.00
2023,04,24,19,49,11.00
2023,04,24,19,50,10.90
2023,04,24,19,51,10.90
2023,04,24,19,52,10.90
2023,04,24,19,53,10.90
2023,04,24,19,54,10.90
2023,04,24,19,55,10.80
2023,04,24,19,56,10.80
2023,04,24,19,57,10.80
2023,04,24,19,58,10.70
2023,04,24,19,59,10.60
2023,04,24,20,00,10.50
2023,04,24,20,01,10.50
2023,04,24,20,02,10.40
2023,04,24,20,03,10.30
2023,04,24,20,04,10.30
2023,04,24,20,05,10.20
2023,04,24,20,06,10.20
2023,04,24,20,07,10.20
2023,04,24,20,08,10.20
2023,04,24,20,09,10.10
2023,04,24,20,10,10.10
2023,04,24,20,11,10.10
2023,04,24,20,12,10.00
2023,04,24,20,13,10.00
2023,04,24,20,14,10.00
2023,04,24,20,15,9.90
2023,04,24,20,16,9.90
2023,04,24,20,17,9.90
2023,04,24,20,18,9.90
2023,04,24,20,19,9.80
2023,04,24,20,20,9.80
2023,04,24,20,21,9.80
2023,04,24,20,22,9.70
2023,04,24,20,23,9.70
2023,04,24,20,24,9.70
2023,04,24,20,25,9.60
2023,04,24,20,26,9.60
2023,04,24,20,27,9.60
2023,04,24,20,28,9.50
2023,04,24,20,29,9.50
2023,04,24,20,30,9.40
2023,04,24,20,31,9.40
2023,04,24,20,32,9.30
2023,04,24,20,33,9.30
2023,04,24,20,34,9.30
2023,04,24,20,35,9.30
2023,04,24,20,36,9.30
2023,04,24,20,37,9.30
2023,04,24,20,38,9.20
2023,04,24,20,39,9.10
2023,04,24,20,40,9.10
2023,04,24,20,41,9.10
2023,04,24,20,42,9.00
2023,04,24,20,43,9.00
2023,04,24,20,44,9.00
2023,04,24,20,45,9.00
2023,04,24,20,46,9.00
2023,04,24,20,47,8.90
2023,04,24,20,48,8.90
2023,04,24,20,49,8.90
2023,04,24,20,50,8.90
2023,04,24,20,51,8.90
2023,04,24,20,52,8.80
2023,04,24,20,53,8.80
2023,04,24,20,54,8.80
2023,04,24,20,55,8.80
2023,04,24,20,56,8.80
2023,04,24,20,57,8.80
2023,04,24,20,58,8.80
2023,04,24,20,59,8.70
2023,04,24,21,00,8.70
2023,04,24,21,01,8.70
2023,04,24,21,02,8.60
2023,04,24,21,03,8.60
2023,04,24,21,04,8.60
2023,04,24,21,05,8.60
2023,04,24,21,06,8.50
2023,04,24,21,07,8.50
2023,04,24,21,08,8.50
2023,04,24,21,09,8.50
2023,04,24,21,10,8.40
2023,04,24,21,11,8.40
2023,04,24,21,12,8.40
2023,04,24,21,13,8.40
2023,04,24,21,14,8.30
2023,04,24,21,15,8.30
2023,04,24,21,16,8.30
2023,04,24,21,17,8.30
2023,04,24,21,18,8.30
2023,04,24,21,19,8.30
2023,04,24,21,20,8.30
2023,04,24,21,21,8.30
2023,04,24,21,22,8.20
2023,04,24,21,23,8.20
2023,04,24,21,24,8.20
2023,04,24,21,25,8.20
2023,04,24,21,26,8.20
2023,04,24,21,27,8.20
2023,04,24,21,28,8.20
2023,04,24,21,29,8.10
2023,04,24,21,30,8.10
2023,04,24,21,31,8.20
2023,04,24,21,32,8.10
2023,04,24,21,33,8.10
2023,04,24,21,34,8.10
2023,04,24,21,35,8.10
2023,04,24,21,36,8.10
2023,04,24,21,37,8.10
2023,04,24,21,38,8.10
2023,04,24,21,39,8.10
2023,04,24,21,40,8.10
2023,04,24,21,41,8.10
2023,04,24,21,42,8.10
2023,04,24,21,43,8.10
2023,04,24,21,44,8.10
2023,04,24,21,45,8.10
2023,04,24,21,46,8.10
2023,04,24,21,47,8.00
2023,04,24,21,48,8.00
2023,04,24,21,49,8.00
2023,04,24,21,50,8.00
2023,04,24,21,51,8.00
2023,04,24,21,52,8.00
2023,04,24,21,53,8.00
2023,04,24,21,54,8.00
2023,04,24,21,55,8.00
2023,04,24,21,56,8.00
2023,04,24,21,57,8.00
2023,04,24,21,58,8.00
2023,04,24,21,59,8.00
2023,04,24,22,00,8.00
2023,04,24,22,01,7.90
2023,04,24,22,02,7.90
2023,04,24,22,03,7.90
2023,04,24,22,04,7.90
2023,04,24,22,05,7.90
2023,04,24,22,06,7.90
2023,04,24,22,07,7.90
2023,04,24,22,08,7.90
2023,04,24,22,09,7.90
2023,04,24,22,10,7.80
2023,04,24,22,11,7.80
2023,04,24,22,12,7.80
2023,04,24,22,13,7.80
2023,04,24,22,14,7.80
2023,04,24,22,15,7.80
2023,04,24,22,16,7.80
2023,04,24,22,17,7.80
2023,04,24,22,18,7.80
2023,04,24,22,19,7.80
2023,04,24,22,20,7.80
2023,04,24,22,21,7.70
2023,04,24,22,22,7.70
2023,04,24,22,23,7.70
2023,04,24,22,24,7.70
2023,04,24,22,25,7.70
2023,04,24,22,26,7.70
2023,04,24,22,27,7.70
2023,04,24,22,28,7.70
2023,04,24,22,29,7.60
2023,04,24,22,30,7.60
2023,04,24,22,31,7.60
2023,04,24,22,32,7.60
2023,04,24,22,33,7.50
2023,04,24,22,34,7.50
2023,04,24,22,35,7.50
2023,04,24,22,36,7.40
2023,04,24,22,37,7.40
2023,04,24,22,38,7.30
2023,04,24,22,39,7.30
2023,04,24,22,40,7.30
2023,04,24,22,41,7.30
2023,04,24,22,42,7.40
2023,04,24,22,43,7.40
2023,04,24,22,44,7.40
2023,04,24,22,45,7.40
2023,04,24,22,46,7.40
2023,04,24,22,47,7.40
2023,04,24,22,48,7.40
2023,04,24,22,49,7.30
2023,04,24,22,50,7.30
2023,04,24,22,51,7.30
2023,04,24,22,52,7.30
2023,04,24,22,53,7.30
2023,04,24,22,54,7.30
2023,04,24,22,55,7.30
2023,04,24,22,56,7.30
2023,04,24,22,57,7.40
2023,04,24,22,58,7.40
2023,04,24,22,59,7.40
2023,04,24,23,00,7.40
2023,04,24,23,01,7.40
2023,04,24,23,02,7.40
2023,04,24,23,03,7.40
2023,04,24,23,04,7.40
2023,04,24,23,05,7.40
2023,04,24,23,06,7.40
2023,04,24,23,07,7.40
2023,04,24,23,08,7.40
2023,04,24,23,09,7.30
2023,04,24,23,10,7.30
2023,04,24,23,11,7.30
2023,04,24,23,12,7.30
2023,04,24,23,13,7.20
2023,04,24,23,14,7.20
2023,04,24,23,15,7.20
2023,04,24,23,16,7.10
2023,04,24,23,17,7.10
2023,04,24,23,18,7.10
2023,04,24,23,19,7.10
2023,04,24,23,20,7.00
2023,04,24,23,21,7.00
2023,04,24,23,22,6.90
2023,04,24,23,23,6.90
2023,04,24,23,24,6.90
2023,04,24,23,25,6.90
2023,04,24,23,26,6.90
2023,04,24,23,27,6.80
2023,04,24,23,28,6.80
2023,04,24,23,29,6.80
2023,04,24,23,30,6.70
2023,04,24,23,31,6.70
2023,04,24,23,32,6.70
2023,04,24,23,33,6.60
2023,04,24,23,34,6.60
2023,04,24,23,35,6.50
2023,04,24,23,36,6.40
2023,04,24,23,37,6.40
2023,04,24,23,38,6.40
2023,04,24,23,39,6.30
2023,04,24,23,40,6.30
2023,04,24,23,41,6.30
2023,04,24,23,42,6.30
2023,04,24,23,43,6.30
2023,04,24,23,44,6.30
2023,04,24,23,45,6.30
2023,04,24,23,46,6.20
2023,04,24,23,47,6.20
2023,04,24,23,48,6.20
2023,04,24,23,49,6.10
2023,04,24,23,50,6.10
2023,04,24,23,51,6.10
2023,04,24,23,52,6.10
2023,04,24,23,53,6.00
2023,04,24,23,54,6.00
2023,04,24,23,55,5.90
2023,04,24,23,56,5.90
2023,04,24,23,57,5.90
2023,04,24,23,58,5.80
2023,04,24,23,59,5.80
